Find Vigoride VR-3

NORAD ID: 52760 Int'l Des: 2022-057 Owner: MOMENT Country: US operational
LEOCIRCULARRETROGRADESSO

实时位置

正在加载3D地球...

关于 Vigoride VR-3

正在加载描述...

即将过境

Passes for default location (London). Set your location on the main map for personalized predictions.

高度历史

Loading altitude history...

两行轨道根数

1 52760U 22057AE 26120.64258561 .00005978 00000-0 22997-3 0 9995
2 52760 97.6531 259.3957 0007150 294.8646 65.1848 15.26771107217903
Epoch: Apr 30, 2026 • Age: 5 hours

当前状态

高度 488.6 km
速度 7.62 km/s
星下点 -15.08°S, 101.76°E
发射日期 May 25, 2022
运行时间 3.9 years
类型 other

技术详情

分类 Payload
质量 412.00 kg
干质量 292.00 kg
总质量 412.00 kg
长度 1.20 m
直径 0.50 m
跨度 6.50 m
形状 Box+ 2 pan
制造商 MOMENT
平台类型 Vigoride
阶段状态 In Orbit
所有者/国家 MOMENT/US

Most Searched